Probability
7 6 5 4 1 0 0 0 0 0 0 0 0 0 0 0 0 0 0 0 0 0 0 0 0 0 0 0 0 0 0 0 0 0 0 0 0 0 0 0 0 0 0
9 6 6 6 2 0 0 0 0 0 0 0 0 0 0 0 0 0 0 0 0 0 0 0 0 0 0 0 0 0 0 0 0 0 0 0 0 0 0 0 0 0 0
9 6 7 8 4 1 1 0 0 0 0 0 0 0 0 0 0 0 0 0 0 0 0 0 0 0 0 0 0 0 0 0 0 0 0 0 0 0 0 0 0 0 0
8 5 6 7 5 3 2 1 0 0 0 0 0 0 0 0 0 0 0 0 0 0 0 0 0 0 0 0 0 0 0 0 0 0 0 0 0 0 0 0 0 0 0
8 7 7 8 6 4 3 1 0 0 0 0 0 0 0 0 0 0 0 0 0 0 0 0 0 0 0 0 0 0 0 0 0 0 0 0 0 0 0 0 0 0 0
10 10 10 9 7 5 3 1 0 0 0 0 0 0 0 0 0 0 0 0 0 0 0 0 0 0 0 0 0 0 0 0 0 0 0 0 0 0 0 0 0 0 0
13 12 12 12 11 7 4 1 0 0 0 0 0 0 0 0 0 0 0 0 0 0 0 0 0 0 0 0 0 0 0 0 0 0 0 0 0 0 0 0 0 0 0
19 16 15 16 14 9 5 3 2 1 0 0 0 0 0 0 0 0 0 0 0 0 0 0 0 0 0 0 0 0 0 0 0 0 0 0 0 0 0 0 0 0 0
26 22 18 17 15 11 7 5 5 3 1 0 0 0 0 0 0 0 0 0 0 0 0 0 0 0 0 0 0 0 0 0 0 0 0 0 0 0 0 0 0 0 0
32 26 20 19 17 13 8 7 6 5 3 1 0 1 1 1 0 0 0 0 0 0 0 0 0 0 0 0 0 0 0 0 0 0 0 0 0 0 0 0 0 0 0
37 30 23 22 22 15 9 8 8 7 6 3 2 2 2 2 1 0 0 0 0 0 0 0 0 0 0 0 0 0 0 0 0 0 0 0 0 0 0 0 0 0 0
44 34 26 27 26 20 14 12 10 8 7 6 4 3 3 2 1 1 0 0 0 0 0 0 0 0 0 0 0 0 0 0 0 0 0 0 0 0 0 0 0 0 0
49 38 32 34 32 27 23 17 11 7 5 5 4 3 1 1 1 1 2 1 0 0 0 0 0 0 0 0 0 0 0 0 0 0 0 0 0 0 0 0 0 0 0
53 48 47 48 43 39 33 21 10 6 5 4 3 2 1 1 1 2 2 2 1 1 1 0 0 0 0 0 0 0 0 1 1 1 0 0 0 0 0 0 0 0 0
61 60 62 63 58 54 46 31 17 12 9 8 5 3 2 3 3 2 2 1 1 1 1 0 0 0 0 0 0 0 0 1 2 2 1 0 0 0 0 0 0 0 0
68 68 69 68 65 63 56 43 32 24 19 16 12 7 5 6 5 3 1 0 0 1 1 0 0 0 0 0 0 0 0 1 2 2 1 0 0 0 0 0 0 0 0
72 70 67 63 62 63 58 48 41 36 30 25 21 15 9 8 8 3 0 0 0 0 0 0 0 1 1 1 1 1 1 1 1 1 0 0 0 0 0 0 0 0 0
71 70 65 58 56 59 56 49 44 44 41 36 29 21 12 9 7 3 0 0 0 0 0 0 1 2 2 2 2 2 1 2 1 0 0 0 0 0 0 0 0 0 0
69 67 63 56 52 53 53 49 45 46 47 41 33 23 15 11 7 2 1 1 1 0 0 0 1 2 2 2 2 2 2 2 1 0 0 0 0 0 0 0 0 0 0
65 64 61 55 50 48 48 44 41 41 41 37 31 25 18 13 7 3 2 2 2 1 0 0 0 1 1 1 1 1 1 1 0 0 0 0 0 0 0 0 0 0 0
62 61 59 55 50 47 43 38 36 34 33 30 28 27 24 16 7 3 2 3 3 2 0 0 0 0 0 0 0 0 0 0 0 0 0 0 0 0 0 0 0 0 0
60 57 54 51 46 43 39 34 32 32 29 26 26 28 26 18 10 4 2 2 3 3 2 0 0 0 0 0 0 0 0 0 0 0 0 0 0 0 0 0 0 0 0
55 50 46 44 38 33 31 28 28 30 27 24 24 25 23 19 14 8 3 2 4 5 3 1 0 0 0 0 0 0 0 0 0 0 0 0 0 0 0 0 0 0 0
48 43 39 37 32 26 23 23 23 24 23 23 24 25 23 21 18 12 6 4 4 5 3 1 0 0 0 0 0 0 0 0 0 0 0 0 0 0 0 0 0 0 0
42 38 35 33 29 24 20 20 22 22 23 24 26 26 25 22 19 13 8 5 4 3 3 2 1 0 0 0 0 0 0 0 0 0 0 0 0 0 0 0 0 0 0
39 36 32 30 29 26 21 20 23 24 25 26 27 26 25 22 19 14 8 5 4 3 3 3 2 1 0 0 0 0 0 0 0 0 0 0 0 0 0 0 0 0 0
Wind_Speed
18 18 18 16 15 14 14 14 14 14 14 13 13 13 13 13 13 13 13 13 13 13 13 13 13 13 13 14 14 14 15 15 15 16 16 16 15 13 12 14 16 13 16
21 19 19 16 15 14 15 15 14 14 14 13 13 12 12 12 12 13 13 13 13 13 13 14 14 14 14 13 13 13 13 12 13 15 16 15 14 13 13 15 16 11 15
21 18 18 16 15 15 15 15 14 14 14 13 13 12 12 12 12 13 13 13 13 14 14 14 14 14 13 13 12 11 11 10 11 11 12 11 12 15 16 17 16 15 14
21 18 17 18 16 15 15 15 15 14 14 13 13 12 12 12 12 13 13 13 14 14 14 14 14 14 13 12 11 9 8 8 7 7 5 8 10 14 15 15 14 14 13
19 17 18 18 17 16 15 15 15 14 14 13 13 12 12 12 13 13 13 13 14 14 14 14 13 13 12 11 9 7 5 4 3 4 9 10 8 12 14 14 13 13 13
19 18 18 18 17 16 16 15 14 14 14 13 13 12 13 13 13 13 13 13 13 14 13 13 12 12 11 9 7 4 2 0 1 6 9 9 8 11 13 13 13 12 12
19 18 18 19 18 16 16 15 14 14 14 13 13 13 13 13 12 13 13 13 13 13 13 12 11 10 9 7 5 2 1 4 1 8 9 9 9 11 12 12 12 12 12
19 19 17 18 18 16 16 15 15 14 14 13 13 13 13 13 12 13 13 13 12 12 11 11 10 9 8 6 3 1 4 7 5 12 11 9 11 12 12 12 11 11 11
19 18 16 15 15 16 16 15 15 14 14 13 13 13 13 13 13 12 12 12 12 11 10 10 9 8 7 5 2 1 4 7 2 8 11 8 11 12 12 11 11 10 10
17 17 15 15 14 13 13 15 15 15 14 14 13 13 13 13 13 13 12 11 11 10 9 8 8 7 6 4 2 3 5 6 2 10 8 9 12 12 11 11 10 10 10
16 15 16 16 14 13 13 14 14 14 13 13 12 13 12 9 10 9 12 11 10 9 8 7 6 6 5 5 4 4 5 1 6 7 7 12 12 12 11 10 10 9 9
15 15 14 15 14 13 11 10 9 9 9 8 7 9 6 4 6 9 12 11 10 9 7 6 6 6 5 4 5 5 3 2 5 8 8 13 12 11 10 9 9 9 8
14 13 14 14 12 11 9 9 6 5 6 7 8 7 4 4 5 7 5 6 6 7 5 5 5 4 3 2 1 2 0 3 4 7 9 13 11 10 10 9 9 8 8
12 12 13 13 10 8 9 7 6 6 6 5 6 6 5 3 4 4 3 4 4 2 2 2 1 1 2 2 1 1 2 3 5 6 7 12 10 10 9 8 8 8 8
11 11 12 13 10 7 7 6 7 6 6 6 5 4 5 4 3 4 2 2 2 2 2 1 1 2 1 0 1 2 3 3 5 7 6 11 10 9 9 8 8 8 8
11 10 11 12 10 8 6 3 4 6 4 6 5 5 5 4 4 4 3 2 2 2 2 1 2 2 0 0 1 2 2 3 4 6 7 8 10 9 8 8 8 8 8
10 10 10 11 10 9 7 5 5 5 6 5 5 6 5 5 5 4 4 3 2 2 2 1 2 2 2 2 1 2 2 2 3 4 6 6 6 8 9 8 8 8 8
10 10 10 11 12 9 7 5 3 4 5 5 5 5 5 5 5 4 3 3 3 3 2 2 1 1 1 1 1 1 2 2 3 3 3 5 5 6 8 10 9 8 8
10 9 10 9 11 10 8 5 3 3 4 4 5 5 5 5 6 3 3 3 3 2 2 2 2 1 1 1 2 2 2 2 3 4 3 4 4 5 6 8 10 9 9
10 9 10 9 10 9 7 5 3 4 4 4 5 5 6 5 5 3 3 4 3 2 2 1 2 1 1 1 2 2 2 3 3 3 3 4 4 5 6 7 6 7 10
10 10 10 10 10 9 7 7 6 5 5 4 5 7 7 5 5 3 3 3 2 2 2 3 2 2 2 1 0 1 2 3 3 3 2 2 3 4 4 6 5 4 5
11 10 10 9 11 11 8 6 6 6 5 4 4 6 7 6 5 5 4 4 3 2 2 2 1 1 2 2 1 1 1 1 2 4 3 3 3 3 4 6 5 5 4
11 11 10 10 10 10 9 6 6 5 4 4 5 5 6 6 5 3 5 3 3 3 3 3 2 2 1 1 1 0 0 1 2 2 4 3 3 2 2 4 5 5 5
10 10 9 9 9 10 10 9 10 8 7 6 5 5 6 6 6 5 5 4 3 2 4 4 4 2 2 2 2 1 1 1 0 1 2 3 4 3 2 2 4 4 4
10 10 9 9 9 10 10 10 10 8 6 5 6 7 6 5 5 6 5 4 3 2 3 2 2 1 1 2 1 1 2 1 2 1 2 2 2 3 4 3 3 3 4
10 10 10 10 10 10 10 10 10 9 8 8 8 8 6 5 4 6 5 4 4 3 3 3 2 2 1 2 2 1 1 1 2 2 2 3 3 3 4 3 4 4 4
Wind_Direction
124 127 129 128 127 127 126 125 124 121 117 113 108 103 100 97 94 93 94 95 94 95 95 94 92 89 87 85 84 85 88 91 94 95 95 93 91 89 92 101 97 90 91
123 128 130 129 128 128 127 126 125 123 121 118 114 110 106 102 100 99 98 97 97 96 95 94 94 92 91 90 91 93 95 99 102 105 104 95 89 88 89 89 91 96 95
123 128 131 130 129 127 127 127 127 125 123 121 118 115 110 106 104 102 100 99 98 98 97 96 95 94 93 93 95 99 103 107 114 121 117 103 93 89 90 92 97 98 98
127 135 132 132 131 130 129 128 128 128 126 124 122 119 115 111 107 105 104 102 101 100 99 97 96 94 94 95 97 103 110 118 129 134 114 103 98 96 96 97 99 99 99
129 128 130 136 134 133 132 131 131 131 129 128 126 124 121 116 110 107 106 104 103 101 100 98 97 96 95 96 100 106 113 123 149 126 93 88 90 102 102 102 104 102 100
129 129 135 138 136 135 134 134 133 133 131 129 128 125 121 117 113 111 107 105 104 102 101 99 98 98 97 98 100 100 93 16 264 108 104 102 100 106 106 105 105 104 102
132 131 138 140 139 138 138 137 137 135 134 131 127 124 121 118 116 114 109 107 105 104 102 101 99 99 100 99 100 86 2 311 218 107 103 100 106 109 107 108 107 107 105
133 133 137 142 142 142 142 141 140 138 136 133 129 126 123 122 119 117 115 112 109 108 106 103 102 102 102 101 97 33 332 314 100 105 104 104 114 111 109 109 111 111 109
133 133 143 146 145 146 145 145 143 140 137 136 133 131 128 128 126 123 119 116 114 113 111 109 107 108 111 114 118 301 306 318 55 114 113 113 118 117 116 115 113 114 113
136 141 148 149 148 150 149 149 147 144 141 140 140 139 136 135 134 131 127 122 120 119 118 117 118 122 128 143 179 262 300 312 121 108 108 120 123 122 122 121 119 117 118
143 146 153 149 153 156 153 150 151 149 146 146 148 150 151 153 144 148 126 131 129 128 129 132 137 144 152 173 205 246 280 263 89 99 105 124 127 126 124 123 122 122 121
150 155 156 153 157 161 154 147 155 158 154 164 157 164 177 161 143 131 134 140 142 144 149 161 167 175 190 182 197 226 252 161 119 109 120 130 128 129 130 129 129 129 128
156 157 156 151 157 160 141 154 162 159 160 172 162 172 171 142 133 130 144 147 158 165 176 168 192 210 186 135 182 214 249 71 95 108 128 132 131 134 136 137 138 139 138
163 157 153 146 156 153 146 159 164 156 165 165 159 175 159 149 142 144 146 160 166 168 165 177 198 119 99 138 149 31 62 84 99 110 133 135 135 139 142 145 146 149 149
162 160 148 148 153 147 145 165 162 154 169 155 155 178 154 152 149 130 120 138 163 150 162 201 119 89 78 166 153 107 71 80 102 113 131 144 144 150 153 154 156 158 161
166 162 149 150 149 146 151 174 151 158 156 149 156 166 165 148 133 125 136 159 158 148 140 158 130 131 163 65 68 94 95 95 102 126 141 151 155 159 163 164 164 165 169
162 155 149 150 150 153 165 182 168 162 157 152 154 156 164 145 137 144 151 174 157 130 132 152 152 161 176 163 125 122 122 105 123 130 143 154 163 171 173 175 177 176 177
159 157 158 164 158 160 165 182 182 162 148 149 148 151 160 143 146 155 158 159 147 148 155 140 197 187 145 140 138 171 134 140 139 158 162 162 166 171 181 185 185 184 186
154 158 162 159 159 163 165 174 185 147 144 150 149 154 159 153 154 163 141 130 162 160 162 181 152 138 144 155 168 172 169 161 154 188 174 172 168 163 167 182 187 188 194
156 162 162 164 164 162 163 169 174 163 156 161 155 150 154 159 158 162 142 149 178 158 141 97 99 109 160 230 226 163 186 164 177 181 189 180 174 173 169 170 178 195 201
159 164 167 172 170 166 168 173 176 173 170 166 160 152 158 160 155 169 138 144 172 144 144 151 148 191 217 203 200 185 197 190 179 174 186 170 175 171 168 160 177 178 187
164 170 175 177 171 170 173 174 176 169 170 166 160 151 158 155 160 170 144 165 166 144 148 156 146 215 232 184 197 200 191 189 211 186 166 182 185 175 178 175 171 173 182
168 176 179 176 172 173 172 172 174 161 164 167 158 159 162 161 167 155 153 166 165 164 161 181 192 205 245 235 211 214 206 179 187 189 189 175 171 186 185 165 176 176 182
170 172 169 171 177 179 178 179 176 175 173 172 164 158 159 164 163 160 160 161 166 167 158 192 190 199 206 247 228 205 211 126 184 164 200 169 175 180 201 211 178 173 175
169 169 169 169 177 181 183 182 181 179 173 163 156 152 159 165 168 167 163 162 171 186 163 171 147 188 223 246 259 220 202 197 235 195 195 180 188 187 188 197 176 183 177
165 168 169 170 174 178 184 186 186 181 174 167 162 161 165 166 174 169 167 168 182 181 158 150 161 194 244 304 317 306 233 218 229 220 200 200 195 194 183 179 180 185 188